GW4890 Weather Reports


Display with metric or nautical units.
time (UTC)temp
F
wind
direction
speed
MPH
gust
MPH
rain 1hr
in
rain 24hr
in
rain mn
in
humidity
%
barometer
mb
20260507235122 70 348 4.0 14.0 0.00 0.00 0.00 23 1005.0
20260507234143 69 5 3.0 9.0 0.00 0.00 0.00 23 1004.9
20260507233122 68 12 4.0 12.0 0.00 0.00 0.00 24 1004.9
20260507232122 68 333 8.0 18.0 0.00 0.00 0.00 23 1005.0
20260507231123 68 298 5.0 12.0 0.00 0.00 0.00 23 1005.0
20260507230123 68 282 6.0 16.0 0.00 0.00 0.00 23 1005.0
20260507225123 67 305 5.0 14.0 0.00 0.00 0.00 24 1005.0
20260507224123 68 352 9.0 26.0 0.00 0.00 0.00 23 1005.1
20260507223123 68 21 7.0 23.0 0.00 0.00 0.00 24 1005.2
20260507222125 68 356 10.0 24.0 0.00 0.00 0.00 23 1005.1
20260507221125 69 329 9.0 33.0 0.00 0.00 0.00 22 1005.2
20260507220146 70 350 10.0 25.0 0.00 0.00 0.00 22 1005.2
20260507215125 71 57 8.0 23.0 0.00 0.00 0.00 21 1005.2
20260507214146 68 354 9.0 23.0 0.00 0.00 0.00 23 1005.3
20260507213126 69 25 8.0 20.0 0.00 0.00 0.00 23 1005.6
20260507212123 68 318 11.0 29.0 0.00 0.00 0.00 23 1005.5
20260507211122 68 313 11.0 30.0 0.00 0.00 0.00 24 1005.7
20260507210123 66 344 12.0 32.0 0.00 0.00 0.00 24 1005.8
20260507205126 68 350 10.0 26.0 0.00 0.00 0.00 24 1005.8
20260507204126 68 353 11.0 28.0 0.00 0.00 0.00 24 1005.9
20260507203122 67 324 10.0 34.0 0.00 0.00 0.00 25 1005.8
20260507202122 66 335 12.0 29.0 0.00 0.00 0.00 25 1005.9
20260507201122 66 298 13.0 29.0 0.00 0.00 0.00 24 1005.8
20260507200122 65 301 12.0 30.0 0.00 0.00 0.00 25 1005.9
20260507195122 65 298 12.0 31.0 0.00 0.00 0.00 25 1005.9
20260507194122 65 324 13.0 34.0 0.00 0.00 0.00 25 1006.0
20260507193126 65 314 13.0 31.0 0.00 0.00 0.00 26 1005.8
20260507192123 65 320 14.0 35.0 0.00 0.00 0.00 28 1005.9
20260507191124 65 307 13.0 29.0 0.00 0.00 0.00 27 1006.0
20260507190122 65 309 12.0 33.0 0.00 0.00 0.00 28 1006.0
20260507185122 64 341 14.0 32.0 0.00 0.00 0.00 28 1005.9
20260507184122 64 328 14.0 32.0 0.00 0.00 0.00 30 1005.9
20260507183122 64 321 10.0 25.0 0.00 0.00 0.00 30 1006.0
20260507182122 63 314 15.0 35.0 0.00 0.00 0.00 30 1006.0
20260507181122 64 342 15.0 33.0 0.00 0.00 0.00 31 1005.9
20260507180122 63 320 14.0 32.0 0.00 0.00 0.00 31 1005.9
20260507175124 63 335 12.0 28.0 0.00 0.00 0.00 31 1005.9
20260507174122 62 332 13.0 34.0 0.00 0.00 0.00 33 1006.1
20260507173122 62 318 15.0 35.0 0.00 0.00 0.00 33 1006.1
20260507172122 62 319 14.0 28.0 0.00 0.00 0.00 33 1006.2
20260507171123 62 318 15.0 34.0 0.00 0.00 0.00 35 1006.2
20260507170122 61 330 16.0 34.0 0.00 0.00 0.00 36 1006.2
20260507165122 61 320 15.0 32.0 0.00 0.00 0.00 36 1006.3
20260507164122 61 331 16.0 32.0 0.00 0.00 0.00 36 1006.3
20260507163143 60 348 16.0 34.0 0.00 0.00 0.00 36 1006.2
20260507162123 60 332 17.0 35.0 0.00 0.00 0.00 36 1006.4
20260507161123 59 337 16.0 33.0 0.00 0.00 0.00 37 1006.5
20260507160122 59 319 16.0 35.0 0.00 0.00 0.00 37 1006.7
20260507155143 59 329 17.0 33.0 0.00 0.00 0.00 38 1006.7
20260507154122 59 317 17.0 38.0 0.00 0.00 0.00 38 1006.8
20260507153143 57 317 14.0 31.0 0.00 0.00 0.00 39 1006.7
20260507152122 57 321 14.0 31.0 0.00 0.00 0.00 41 1006.7
20260507151122 57 319 16.0 33.0 0.00 0.00 0.00 40 1006.8
20260507150143 57 318 16.0 32.0 0.00 0.00 0.00 39 1006.8
20260507145122 56 305 14.0 28.0 0.00 0.00 0.00 41 1006.8
20260507144122 56 306 13.0 27.0 0.00 0.00 0.00 43 1006.7
20260507143122 55 296 13.0 26.0 0.00 0.00 0.00 45 1006.7
20260507142122 54 288 12.0 24.0 0.00 0.00 0.00 45 1006.7
20260507141122 54 295 12.0 27.0 0.00 0.00 0.00 45 1006.6
20260507140122 54 299 11.0 23.0 0.00 0.00 0.00 47 1006.4
20260507135123 53 301 9.0 23.0 0.00 0.00 0.00 48 1006.4
20260507134122 53 292 9.0 18.0 0.00 0.00 0.00 51 1006.3
20260507133126 51 287 8.0 16.0 0.00 0.00 0.00 53 1006.2
20260507132122 51 294 9.0 19.0 0.00 0.00 0.00 53 1006.1
20260507131122 51 289 8.0 16.0 0.00 0.00 0.00 53 1006.0
20260507130126 51 288 8.0 18.0 0.00 0.00 0.00 53 1006.0
20260507125123 51 290 7.0 14.0 0.00 0.00 0.00 54 1006.0
20260507124144 50 294 8.0 17.0 0.00 0.00 0.00 56 1006.0
20260507123126 50 283 8.0 18.0 0.00 0.00 0.00 57 1006.0
20260507122143 50 286 6.0 15.0 0.00 0.00 0.00 58 1005.9
20260507121126 49 292 8.0 17.0 0.00 0.00 0.00 58 1005.8
20260507120123 49 288 10.0 23.0 0.00 0.00 0.00 59 1005.6
20260507115122 48 290 10.0 20.0 0.00 0.00 0.00 60 1005.6
20260507114122 48 280 7.0 15.0 0.00 0.00 0.00 60 1005.4
20260507113125 50 277 9.0 19.0 0.00 0.00 0.00 57 1005.4
20260507112122 50 264 9.0 18.0 0.00 0.00 0.00 57 1005.2
20260507111124 51 266 8.0 16.0 0.00 0.00 0.00 57 1005.2
20260507110123 51 273 7.0 14.0 0.00 0.00 0.00 60 1005.3
20260507105126 51 266 7.0 17.0 0.00 0.00 0.00 61 1005.3
20260507104122 51 261 8.0 16.0 0.00 0.00 0.00 59 1005.2
20260507103122 51 260 6.0 13.0 0.00 0.00 0.00 61 1005.2
20260507102124 51 259 6.0 13.0 0.00 0.00 0.00 62 1005.2
20260507101123 52 251 9.0 19.0 0.00 0.00 0.00 62 1005.2
20260507100122 51 254 8.0 18.0 0.00 0.00 0.00 63 1005.3
20260507095126 51 266 8.0 16.0 0.00 0.00 0.00 64 1005.3
20260507094122 51 259 7.0 16.0 0.00 0.00 0.00 64 1005.2
20260507093122 51 257 6.0 14.0 0.00 0.00 0.00 64 1005.1
20260507092126 50 248 6.0 14.0 0.00 0.00 0.00 65 1005.1
20260507091122 50 254 7.0 16.0 0.00 0.00 0.00 65 1005.0
20260507090122 50 254 5.0 11.0 0.00 0.00 0.00 65 1005.0
20260507085122 51 240 6.0 13.0 0.00 0.00 0.00 61 1005.0
20260507084124 51 238 7.0 14.0 0.00 0.00 0.00 61 1004.9
20260507083122 52 219 6.0 14.0 0.00 0.00 0.00 60 1004.8
20260507082122 51 226 6.0 13.0 0.00 0.00 0.00 62 1005.0
20260507081143 52 223 5.0 13.0 0.00 0.00 0.00 61 1005.1
20260507080144 52 242 7.0 14.0 0.00 0.00 0.00 62 1005.1
20260507075122 51 244 8.0 16.0 0.00 0.00 0.00 62 1005.2
20260507074123 51 249 6.0 14.0 0.00 0.00 0.00 67 1005.1
20260507073123 51 198 5.0 11.0 0.00 0.00 0.00 67 1005.1
20260507072124 51 251 6.0 13.0 0.00 0.00 0.00 66 1005.3
20260507071122 52 260 4.0 9.0 0.00 0.00 0.00 62 1005.3
20260507070122 51 262 4.0 11.0 0.00 0.00 0.00 60 1005.3
20260507065143 51 260 4.0 8.0 0.00 0.00 0.00 58 1005.3
20260507064122 51 263 4.0 9.0 0.00 0.00 0.00 56 1005.3
20260507063143 52 273 4.0 9.0 0.00 0.00 0.00 55 1005.3
20260507062122 52 300 4.0 9.0 0.00 0.00 0.00 53 1005.3
20260507061122 51 336 5.0 12.0 0.00 0.00 0.00 53 1005.2
20260507060143 50 16 3.0 8.0 0.00 0.00 0.00 53 1005.2
20260507055122 50 7 4.0 11.0 0.00 0.00 0.00 53 1005.3
20260507054123 51 90 2.0 6.0 0.00 0.00 0.00 53 1004.8
20260507053123 51 315 0.0 3.0 0.00 0.00 0.00 48 1004.7
20260507052144 50 86 2.0 6.0 0.00 0.00 0.00 49 1004.6
20260507051123 50 80 3.0 8.0 0.00 0.00 0.00 49 1004.5
20260507050122 49 349 2.0 6.0 0.00 0.00 0.00 52 1004.5
20260507045143 51 74 2.0 5.0 0.00 0.00 0.00 50 1004.4
20260507044122 51 14 3.0 5.0 0.00 0.00 0.00 50 1004.4
20260507043122 53 75 2.0 6.0 0.00 0.00 0.00 47 1004.2
20260507042122 55 104 4.0 10.0 0.00 0.00 0.00 42 1003.9
20260507041122 55 114 7.0 14.0 0.00 0.00 0.00 41 1003.5
20260507040122 55 109 6.0 13.0 0.00 0.00 0.00 41 1003.5
20260507035122 56 113 6.0 13.0 0.00 0.00 0.00 41 1003.3
20260507034143 56 112 6.0 12.0 0.00 0.00 0.00 41 1003.1
20260507033123 56 109 4.0 9.0 0.00 0.00 0.00 40 1003.0
20260507032122 57 107 6.0 13.0 0.00 0.00 0.00 38 1002.8
20260507031143 57 105 7.0 13.0 0.00 0.00 0.00 38 1002.7
20260507030122 58 86 7.0 13.0 0.00 0.00 0.00 37 1002.7
20260507025143 59 88 7.0 17.0 0.00 0.00 0.00 36 1002.5
20260507024122 60 78 9.0 19.0 0.00 0.00 0.00 34 1002.3
20260507023122 61 89 11.0 23.0 0.00 0.00 0.00 33 1002.2
20260507022123 62 88 13.0 27.0 0.00 0.00 0.00 32 1002.1
20260507021122 63 90 13.0 30.0 0.00 0.00 0.00 30 1002.0
20260507020123 63 84 14.0 31.0 0.00 0.00 0.00 28 1002.0
20260507015144 66 92 9.0 23.0 0.00 0.00 0.00 29 1001.8
20260507014122 66 87 6.0 14.0 0.00 0.00 0.00 29 1001.9
20260507013122 66 72 6.0 17.0 0.00 0.00 0.00 29 1001.8
20260507012122 66 70 10.0 26.0 0.00 0.00 0.00 29 1001.7
20260507011122 66 13 8.0 22.0 0.00 0.00 0.00 30 1001.7
20260507010122 66 359 10.0 23.0 0.00 0.00 0.00 29 1001.7
20260507005122 66 341 9.0 19.0 0.00 0.00 0.00 29 1001.7
20260507004122 67 331 11.0 24.0 0.00 0.00 0.00 27 1001.9
20260507003122 67 323 11.0 26.0 0.00 0.00 0.00 29 1001.7
20260507002123 68 360 10.0 23.0 0.00 0.00 0.00 26 1001.3
20260507001123 69 65 5.0 14.0 0.00 0.00 0.00 24 1000.9
20260507000122 71 102 6.0 15.0 0.00 0.00 0.00 23 1000.7